Location: Newark
(0.5300°S, 127.4800°E)
Time: 13:59:48
(UTC+00:00)

Vanguard 3 - Pass Details

Date: 26 September 2019
Orbit: 508 x 3262 km, 33.3° (Epoch: 20 October)

Event Time Altitude Azimuth Distance (km) Brightness Sun altitude
Rises 23:47:53 0° 311° (NW) 5,774 11.1 36.6°
Reaches altitude 10° 23:54:27 10° 333° (NNW) 5,326 11.2 38.2°
Maximum altitude 00:02:39 15° 3° (N) 5,406 11.5 40.2°
Drops below altitude 10° 00:11:58 10° 33° (NNE) 6,148 12.1 42.6°
Sets 00:20:56 0° 53° (NE) 7,199 12.5 44.8°
